Torna al catalogo

COSMOS 2583

AttivoMilitarePO
NORAD 62904·PAYLOAD·🇷🇺 Russia

Lanciato Feb 5, 2025 da Plesetsk Cosmodrome

Loading…

Prossimi Passaggi (prossime 24 ore)

TLE

AggiornatoSource: Space-Track

Epoca: Sep 14, 2026, 18:28 UTC

1 62904U 25026C   26257.76994170  .00001647  00000-0  14774-3 0  9995
2 62904  81.9991 343.0774 0011422 116.7636 243.4754 14.95158315 87587

Traccia COSMOS 2583 in tempo reale con AllMySat

Download on the App Store